Regional Weather Roundup
Issued by NWS Memphis, TN

Home | Current Version | Previous Version | Text Only | Print | Product List | Glossary On
Versions: 1 2 3 4 5 6 7 8 9 10 11 12 13 14 15 16 17 18 19 20 21 22 23 24 25 26 27 28 29 30 31 32 33 34 35 36 37 38 39 40 41 42 43 44 45 46 47 48 49 50
541
ASUS44 KMEG 181110
RWRMEG
MEMPHIS CWA HOURLY WEATHER ROUNDUP
NATIONAL WEATHER SERVICE MEMPHIS TN
500 AM CST WED JAN 18 2017

...WEST TENNESSEE...

CITY           SKY/WX    TMP DP  RH WIND       PRES   REMARKS
MEMPHIS INTL   CLOUDY    46  40  79 NE6       30.17R
NWS MEMPHIS      N/A     44 N/A N/A MISG        N/A
JACKSON        CLOUDY    39  38  96 CALM      30.19R
BOLIVAR        CLOUDY    41  39  93 CALM      30.17R
DYERSBURG      CLOUDY    39  37  93 CALM      30.19R
UNION CITY     CLOUDY    43  43 100 CALM      30.17S
PARIS          CLOUDY    41  37  87 CALM      30.17F
HUNTINGDON     CLOUDY    45  41  87 VRB3      30.17F


...EASTERN ARKANSAS...

CITY           SKY/WX    TMP DP  RH WIND       PRES   REMARKS
JONESBORO      CLOUDY    38  36  92 CALM      30.20R
WEST MEMPHIS   CLOUDY    43  42  97 CALM      30.17S
BATESVILLE     CLOUDY    39  37  93 CALM      30.21R
NEWPORT        PTCLDY    39  38  96 N6        30.20R WCI  35
WALNUT RIDGE   CLOUDY    41  36  81 CALM      30.19S
BLYTHEVILLE    MOCLDY    40  39  97 N5        30.20R
SEARCY         CLOUDY    42  40  92 NE9       30.20S
STUTTGART      CLOUDY    46  37  71 NE7       30.18F
PINE BLUFF     LGT RAIN  47  46  97 CALM      30.17R
MONTICELLO     CLOUDY    50  47  89 CALM      30.16S


...NORTH MISSISSIPPI...

CITY           SKY/WX    TMP DP  RH WIND       PRES   REMARKS
TUPELO         CLOUDY    51  46  83 N6        30.16F
OXFORD         CLOUDY    46  45  93 NE3       30.18S
BATESVILLE     CLOUDY    49  46  87 CALM      30.17S
TUNICA         CLOUDY    45  43  93 N3        30.18R
CLARKSDALE     CLOUDY    50  46  87 N3        30.18R
CORINTH        MOCLDY    46  43  87 CALM      30.17S
GREENWOOD      CLOUDY    53  48  83 NE6       30.17S
COLUMBUS       CLOUDY    61  55  82 N5        30.16R
STARKVILLE     CLOUDY    54  54 100 N5        30.17S
GOLDEN TRIANGL CLOUDY    55  52  88 N7        30.12S


...SOUTHEAST MISSOURI...

CITY           SKY/WX    TMP DP  RH WIND       PRES   REMARKS
KENNETT        CLOUDY    45  41  87 NE6       30.18S
WEST PLAINS    FOG       36  35  96 N5        30.17F VSB 3/4 WCI  32
POPLAR BLUFF   CLOUDY    42  38  85 N5        30.20R
CAPE GIRARDEAU CLOUDY    40  35  83 N9        30.20S WCI  34


...NORTHWEST ALABAMA...

CITY           SKY/WX    TMP DP  RH WIND       PRES   REMARKS
MUSCLE SHOALS  CLOUDY    52  45  77 N5        30.17F


...MIDDLE TENNESSEE...

CITY           SKY/WX    TMP DP  RH WIND       PRES   REMARKS
NASHVILLE      CLOUDY    47  40  76 N7        30.20R
CLARKSVILLE    CLOUDY    44  38  79 NW3       30.20R
COLUMBIA       CLOUDY    46  46 100 CALM      30.17R


...WESTERN KENTUCKY...

CITY           SKY/WX    TMP DP  RH WIND       PRES   REMARKS
PADUCAH        CLOUDY    42  36  79 N6        30.19S
FORT CAMPBELL  CLOUDY    44  40  86 NW5       30.19R


...CENTRAL ARKANSAS...

CITY           SKY/WX    TMP DP  RH WIND       PRES   REMARKS
LITTLE ROCK    LGT RAIN  45  43  93 E8        30.16F


SKY/WX REPORTED AS FAIR MEANS FEW OR NO CLOUDS BELOW
12 THOUSAND FEET.





USA.gov is the U.S. government's official web portal to all federal, state and local government web resources and services.